Portada
METAR-TAF:

METAR-TAF

Aeroports :

Grinnell, Iowa, Estats Units d'Amèrica

latitud: 41-42-35N, longitud: 092-44-09W, altitud: 307 m

Observació

L'informe es va fer fa 23 minuts, a les 02:15 UTC
Vent 3 kt del Est/Nord-Est
Temperatura 23°C
Humitat 89%
Pressió 1013 hPa
Visibilitat: 16.1 km
Cel ennuvolat a una alçada de 9500 ft

METAR: KGGI 160215Z AUTO 07003KT 10SM BKN095 23/21 A2991 RMK AO2 T02310213

Hora: 21:38 (02:38 UTC)


TAF: manca

Observacions i pronòstics meteorològics de més de 4000 aeroports (METAR i TAF).

Les estacions disponibles són els punts grocs i vermells al mapa.

Posi el ratolí al punt desitjat per veure el nom de l'estació.

Feu clic per veure les observacions i els pronòstics meteorològics.

Per canviar el mapa: feu clic els botons verds amb una creu de color negre per apropar; al botó verd amb un guió per allunyar la imatge; o en les fletxes verdes per a mapes adjacents.


METAR-TAF: